Home > Weather > Eidsvoll > Past weeks

Flag for Norway Past Weather in Eidsvoll, Norway — Yesterday and Last 2 Weeks

Now
61 °F

Fog.


Feels Like: 61 °F
Forecast: 54 / 62 °F
Wind: No wind

Location: Oslo Gardermoen Airport

Current Time: Aug 25, 2016 at 8:34:12 AM

Latest Report: Aug 25, 2016 at 7:50 AM


Visibility: 1 mi

Pressure: 30.09 "Hg

Humidity: 94%

Dew Point: 59 °F

Location of EidsvollLocation

Past Weather in Eidsvoll — Graph

°F

Eidsvoll Temperature Yesterday

Maximum temperature yesterday: 63 °F (at 12:50 PM)
Minimum temperature yesterday: 57 °F (at 2:20 AM)
Average temperature yesterday: 59 °F

High & Low Weather Summary for the Past Weeks

 TemperatureHumidityPressure
High73 °F (Aug 17, 5:50 PM)100% (Aug 12, 9:50 PM)30.24 "Hg (Aug 12, 9:50 PM)
Low39 °F (Aug 12, 4:50 AM)33% (Aug 17, 6:20 PM)29.56 "Hg (Aug 12, 10:50 PM)
Average58 °F70%29.96 "Hg
* Reported Aug 10 7:20 AM — Aug 25 7:20 AM, Eidsvoll, Weather by CustomWeather, © 2016

Note: Actual official high and low records may vary slightly from our data, if they occured in-between our weather recording intervals... More about our weather records

Advertising

Eidsvoll Weather History for the Previous 24 Hours

Scroll right to see more
 ConditionsComfort  
Time TempWeatherWind HumidityBarometerVisibility
7:20 AM
Thu, Aug 25
61 °FFog.No wind94%30.09 "Hg1 mi
6:50 AM61 °FCool.No wind94%30.09 "Hg2 mi
6:20 AM61 °FFog.2 mph94%30.09 "Hg3 mi
5:50 AM61 °FPartly cloudy.No wind94%30.09 "Hg4 mi
5:20 AM61 °FPassing clouds.2 mph94%30.09 "Hg4 mi
4:50 AM61 °FPassing clouds.No wind94%30.09 "Hg4 mi
4:20 AM61 °FPartly cloudy.No wind94%30.09 "Hg4 mi
3:50 AM61 °FPassing clouds.1 mph94%30.09 "Hg5 mi
3:20 AM61 °FPassing clouds.7 mph94%30.09 "HgN/A
2:50 AM61 °FPassing clouds.9 mph94%30.12 "Hg6 mi
2:20 AM61 °FPassing clouds.9 mph94%30.12 "Hg6 mi
1:50 AM61 °FPassing clouds.12 mph94%30.12 "Hg6 mi
1:20 AM61 °FPassing clouds.12 mph88%30.12 "Hg6 mi
12:50 AM59 °FPassing clouds.9 mph94%30.15 "Hg5 mi
12:20 AM59 °FPassing clouds.10 mph94%30.15 "Hg5 mi
11:50 PM
Wed, Aug 24
59 °FPassing clouds.13 mph94%30.15 "Hg4 mi
11:20 PM59 °FLow clouds.15 mph94%30.15 "Hg4 mi
10:50 PM59 °FPassing clouds.15 mph94%30.15 "Hg4 mi
10:20 PM59 °FPassing clouds.16 mph94%30.15 "Hg5 mi
9:50 PM59 °FLow clouds.18 mph88%30.15 "Hg6 mi
9:20 PM59 °FPartly sunny.18 mph88%30.15 "Hg5 mi
8:50 PM59 °FLow clouds.18 mph88%30.15 "HgN/A
8:20 PM59 °FLow clouds.17 mph88%30.15 "HgN/A
7:50 PM59 °FOvercast.18 mph88%30.15 "HgN/A
7:20 PM59 °FPartly sunny.17 mph88%30.15 "HgN/A
6:50 PM59 °FBroken clouds.17 mph88%30.15 "HgN/A
6:20 PM61 °FBroken clouds.14 mph83%30.18 "HgN/A
5:50 PM59 °FScattered showers. Low clouds.13 mph94%30.18 "HgN/A
5:20 PM59 °FDrizzle. Low clouds.13 mph94%30.18 "Hg4 mi
4:50 PM61 °FScattered showers. Broken clouds.15 mph83%30.18 "HgN/A
4:20 PM63 °FScattered showers. Broken clouds.13 mph73%30.18 "HgN/A
3:50 PM63 °FPartly sunny.14 mph68%30.21 "HgN/A
3:20 PM63 °FPartly sunny.13 mph73%30.21 "HgN/A
2:50 PM63 °FPartly sunny.13 mph73%30.21 "HgN/A
2:20 PM63 °FPassing clouds.15 mph68%30.21 "HgN/A
1:50 PM63 °FPartly sunny.12 mph68%30.21 "HgN/A
1:20 PM63 °FPartly sunny.14 mph68%30.21 "HgN/A
12:50 PM63 °FPartly sunny.13 mph64%30.21 "HgN/A
12:20 PM61 °FPartly sunny.10 mph77%30.24 "HgN/A
11:50 AM61 °FBroken clouds.9 mph77%30.24 "HgN/A
11:20 AM61 °FBroken clouds.9 mph77%30.24 "HgN/A
10:50 AM61 °FBroken clouds.10 mph77%30.24 "HgN/A
10:20 AM61 °FOvercast.12 mph77%30.24 "HgN/A
9:50 AM59 °FOvercast.10 mph77%30.24 "HgN/A
9:20 AM59 °FBroken clouds.10 mph82%30.24 "HgN/A
8:50 AM59 °FOvercast.10 mph82%30.24 "HgN/A
8:20 AM57 °FOvercast.8 mph88%30.24 "HgN/A
Weather by CustomWeather, © 2016

See weather overviewHow to use our weather pages